Weather in Preobrazhenskaya

Russia / Volgograd Oblast     50°44′30″N   43°03′26″E
temp.,
°C
wind,
m/s
gust,
m/s
humid.,
%
clouds,
%
prec.,
mm/h
press.,
hPa
HPBL,
m
27 july, tue
tue2700:00+17e34500 0.0 102252
03:00+16e22570 0.0 102211
06:00+18ese11570 0.0 102245
09:00+25sse11384 0.0 1022540
12:00+29nw23300 0.0 10202209
15:00+30nw352689 0.0 10182919
18:00+28nnw4636100 0.0 1018581
21:00+21n5105657 0.0 1019174
28 july, wed
wed2800:00+20ne22596 0.0 101814
03:00+18wnw22695 0.0 101811
06:00+19n22694 0.0 101878
09:00+25nw22495 0.0 1018716
12:00+29nw233567 0.0 10172692
15:00+27wsw124288 0.1 101657
18:00+30nw133245 0.0 10151427
21:00+24ene114377 0.0 101411
29 july, thu
thu2900:00+22s224892 0.0 101413
03:00+21s4950100 0.0 1013154
06:00+22ssw41147100 0.0 1012294
09:00+29wsw47346 0.0 1011750
12:00+33wsw8103099 0.0 10103107
15:00+30wsw71041100 0.1 10091653
18:00+26wsw4765100 1.8 1009400
21:00+22sw347176 1.8 101048
30 july, fri
fri3000:00+22ssw227025 0.4 101012
03:00+20wsw227623 0.4 101019
06:00+22s11709 0.0 101035
09:00+28ssw23476 0.0 1010606
12:00+32wsw5534100 0.0 10092221
15:00+32sw453995 0.4 10081946
18:00+21nne41081100 3.6 1009267
21:00+19e4793100 9.6 1009157
31 july, sat
sat3100:00+20ssw2291100 1.2 100944
03:00+19ssw239497 2.5 100959
06:00+21sw22877 0.6 100990
09:00+26sw23650 0.6 1010565
12:00+31wsw34440 0.0 10091457
15:00+31wnw6643100 0.1 10081404
18:00+26n34635 0.6 100984
21:00+24s22705 0.6 101017